Location: Nairn
(57.5833°N, 3.8667°W)
Time: 04:59:09
(UTC+00:00)

Altair - Pass Details

Date: 05 December 2020
Orbit: 1501 x 1682 km, 47.2° (Epoch: 17 January)

Event Time Altitude Azimuth Distance (km) Brightness Sun altitude
Rises 17:44:11 0° 190° (S) 4,766 10.5 -16.0°
Reaches altitude 10° 17:48:34 10° 174° (S) 3,751 9.6 -16.5°
Maximum altitude 17:54:18 18° 135° (SE) 3,119 8.8 -17.3°
Enters shadow 17:57:32 15° 111° (ESE) 3,309 8.8 -17.7°
